EW8328 Weather Reports


Display with metric or nautical units.
time (UTC)temp
F
wind
direction
speed
MPH
gust
MPH
rain 1hr
in
rain 24hr
in
rain mn
in
humidity
%
barometer
mb
20200407174451 62 146 6.0 8.0 0.00 0.00 0.00 51 1026.2
20200407173950 62 164 6.0 9.0 0.00 0.00 0.00 51 1026.2
20200407173450 62 185 4.0 8.0 0.00 0.00 0.00 51 1026.3
20200407172950 62 185 6.0 12.0 0.00 0.00 0.00 50 1026.3
20200407172450 62 153 7.0 12.0 0.00 0.00 0.00 50 1026.3
20200407171950 62 165 8.0 14.0 0.00 0.00 0.00 49 1026.3
20200407171450 62 179 7.0 12.0 0.00 0.00 0.00 48 1026.3
20200407170950 63 195 7.0 13.0 0.00 0.00 0.00 48 1026.3
20200407170451 63 159 6.0 12.0 0.00 0.00 0.00 48 1026.3
20200407165951 63 168 7.0 13.0 0.00 0.00 0.00 47 1026.3
20200407165451 64 160 9.0 15.0 0.00 0.00 0.00 46 1026.3
20200407164950 64 146 7.0 15.0 0.00 0.00 0.00 46 1026.3
20200407164451 64 159 7.0 13.0 0.00 0.00 0.00 47 1026.4
20200407163949 64 193 10.0 16.0 0.00 0.00 0.00 46 1026.4
20200407163451 64 183 7.0 13.0 0.00 0.00 0.00 46 1026.4
20200407162950 64 192 7.0 12.0 0.00 0.00 0.00 47 1026.3
20200407162451 64 186 9.0 15.0 0.00 0.00 0.00 45 1026.4
20200407161950 64 160 7.0 14.0 0.00 0.00 0.00 45 1026.3
20200407161450 64 180 10.0 20.0 0.00 0.00 0.00 44 1026.3
20200407160955 64 148 10.0 14.0 0.00 0.00 0.00 50 1026.2
20200407094007 54 134 5.0 9.0 0.00 0.00 0.00 60 1029.6
20200407093507 53 138 7.0 13.0 0.00 0.00 0.00 63 1029.6
20200407093007 52 131 3.0 9.0 0.00 0.00 0.00 65 1029.6
20200407092508 52 125 5.0 7.0 0.00 0.00 0.00 67 1029.6
20200407092007 52 98 4.0 9.0 0.00 0.00 0.00 67 1029.6
20200407091508 51 97 6.0 9.0 0.00 0.00 0.00 68 1029.7
20200407091007 51 116 5.0 9.0 0.00 0.00 0.00 69 1029.8
20200407090507 50 103 3.0 8.0 0.00 0.00 0.00 69 1029.7
20200407090008 50 110 5.0 8.0 0.00 0.00 0.00 71 1029.7
20200407085507 49 106 5.0 8.0 0.00 0.00 0.00 71 1029.7
20200407085007 49 100 5.0 8.0 0.00 0.00 0.00 72 1029.8
20200407084508 48 94 5.0 8.0 0.00 0.00 0.00 73 1029.7
20200407084007 48 98 6.0 9.0 0.00 0.00 0.00 75 1029.7
20200407083508 47 92 4.0 6.0 0.00 0.00 0.00 77 1029.8
20200407083007 47 97 4.0 9.0 0.00 0.00 0.00 78 1029.7
20200407082507 46 88 3.0 7.0 0.00 0.00 0.00 81 1029.8
20200407082008 46 86 5.0 6.0 0.00 0.00 0.00 83 1029.7
20200407081508 45 82 3.0 7.0 0.00 0.00 0.00 85 1029.6
20200407081007 44 82 3.0 5.0 0.00 0.00 0.00 87 1029.6
20200407080507 44 80 2.0 5.0 0.00 0.00 0.00 87 1029.6
20200407080007 43 72 2.0 3.0 0.00 0.00 0.00 87 1029.6
20200407075508 42 72 0.0 2.0 0.00 0.00 0.00 88 1029.6
20200407075007 42 72 1.0 3.0 0.00 0.00 0.00 88 1029.7
20200407074508 42 72 1.0 2.0 0.00 0.00 0.00 89 1029.6
20200407074007 41 72 0.0 1.0 0.00 0.00 0.00 89 1029.6
20200407073508 40 72 0.0 0.0 0.00 0.00 0.00 90 1029.5
20200407073007 40 72 0.0 0.0 0.00 0.00 0.00 90 1029.6
20200407072509 40 72 0.0 1.0 0.00 0.00 0.00 90 1029.6
20200407072008 39 72 0.0 0.0 0.00 0.00 0.00 90 1029.5
20200407071507 39 72 0.0 0.0 0.00 0.00 0.00 90 1029.5
20200407071007 39 72 0.0 2.0 0.00 0.00 0.00 90 1029.4
20200407070507 39 72 0.0 1.0 0.00 0.00 0.00 90 1029.3
20200407070007 39 72 0.0 1.0 0.00 0.00 0.00 90 1029.3
20200407065507 38 72 0.0 0.0 0.00 0.00 0.00 90 1029.3
20200407065007 38 72 0.0 0.0 0.00 0.00 0.00 90 1029.3
20200407064507 38 72 0.0 0.0 0.00 0.00 0.00 89 1029.2
20200407064007 38 72 0.0 1.0 0.00 0.00 0.00 90 1029.2
20200407063507 38 72 0.0 1.0 0.00 0.00 0.00 89 1029.1
20200407063006 37 107 0.0 2.0 0.00 0.00 0.00 89 1029.1
20200407062507 37 107 1.0 2.0 0.00 0.00 0.00 89 1029.1
20200407062007 37 107 0.0 2.0 0.00 0.00 0.00 89 1029.1
20200407061508 37 107 0.0 2.0 0.00 0.00 0.00 89 1029.1
20200407061007 37 107 0.0 1.0 0.00 0.00 0.00 89 1028.9
20200407060507 37 107 1.0 3.0 0.00 0.00 0.00 89 1028.9
20200407060007 37 176 2.0 3.0 0.00 0.00 0.00 89 1028.8
20200407055508 37 176 0.0 1.0 0.00 0.00 0.00 88 1028.8
20200407055007 37 176 1.0 2.0 0.00 0.00 0.00 88 1028.8
20200407054507 37 176 0.0 0.0 0.00 0.00 0.00 88 1028.8
20200407054006 37 176 0.0 3.0 0.00 0.00 0.00 88 1028.8
20200407053507 37 176 1.0 2.0 0.00 0.00 0.00 88 1028.7
20200407053008 37 176 2.0 3.0 0.00 0.00 0.00 88 1028.7
20200407052508 37 177 1.0 3.0 0.00 0.00 0.00 87 1028.6
20200407052006 37 177 3.0 3.0 0.00 0.00 0.00 87 1028.6
20200407051507 37 177 2.0 3.0 0.00 0.00 0.00 87 1028.6
20200407051007 37 177 1.0 3.0 0.00 0.00 0.00 86 1028.7
20200407050508 37 177 1.0 2.0 0.00 0.00 0.00 86 1028.6
20200407050007 37 177 0.0 0.0 0.00 0.00 0.00 86 1028.6
20200407045507 37 177 0.0 1.0 0.00 0.00 0.00 86 1028.4
20200407045006 37 177 0.0 0.0 0.00 0.00 0.00 86 1028.4
20200407044507 37 177 0.0 1.0 0.00 0.00 0.00 86 1028.4
20200407044007 37 177 0.0 0.0 0.00 0.00 0.00 86 1028.3
20200407043508 38 177 0.0 0.0 0.00 0.00 0.00 86 1028.3
20200407043007 38 177 0.0 2.0 0.00 0.00 0.00 86 1028.3
20200407042508 38 177 1.0 2.0 0.00 0.00 0.00 85 1028.4
20200407042006 38 177 0.0 2.0 0.00 0.00 0.00 85 1028.3
20200407041507 38 177 0.0 0.0 0.00 0.00 0.00 86 1028.3
20200407041007 38 177 0.0 2.0 0.00 0.00 0.00 86 1028.2
20200407040507 38 177 2.0 3.0 0.00 0.00 0.00 85 1028.2
20200407040006 38 177 2.0 3.0 0.00 0.00 0.00 85 1028.1
20200407035507 38 177 0.0 0.0 0.00 0.00 0.00 85 1028.1
20200407035006 38 177 0.0 0.0 0.00 0.00 0.00 85 1028.2
20200407034507 39 177 0.0 0.0 0.00 0.00 0.00 85 1028.1
20200407034007 39 177 0.0 0.0 0.00 0.00 0.00 85 1028.0
20200407033507 39 177 0.0 0.0 0.00 0.00 0.00 84 1028.0
20200407033007 39 177 0.0 0.0 0.00 0.00 0.00 84 1028.0
20200407032507 39 177 0.0 1.0 0.00 0.00 0.00 84 1028.0
20200407032006 39 177 0.0 0.0 0.00 0.00 0.00 84 1027.9
20200407031507 39 177 0.0 0.0 0.00 0.00 0.00 84 1027.8
20200407031006 39 177 0.0 0.0 0.00 0.00 0.00 84 1027.8
20200407030507 39 177 0.0 0.0 0.00 0.00 0.00 84 1027.8
20200407030007 39 177 0.0 0.0 0.00 0.00 0.00 84 1027.8
20200407025508 40 177 0.0 0.0 0.00 0.00 0.00 84 1027.8
20200407025006 40 177 0.0 0.0 0.00 0.00 0.00 84 1027.6
20200407024508 40 177 0.0 0.0 0.00 0.00 0.00 84 1027.6
20200407024007 40 177 0.0 0.0 0.00 0.00 0.00 84 1027.5
20200407023509 40 177 0.0 0.0 0.00 0.00 0.00 84 1027.5
20200407023006 40 177 0.0 3.0 0.00 0.00 0.00 84 1027.4
20200407022507 40 177 1.0 2.0 0.00 0.00 0.00 84 1027.3
20200407022006 40 177 1.0 3.0 0.00 0.00 0.00 84 1027.3
20200407021507 40 177 1.0 2.0 0.00 0.00 0.00 85 1027.2
20200407021007 40 177 2.0 2.0 0.00 0.00 0.00 84 1027.3
20200407020507 40 177 1.0 2.0 0.00 0.00 0.00 84 1027.2
20200407020007 40 177 1.0 2.0 0.00 0.00 0.00 84 1027.2
20200407015507 40 177 1.0 3.0 0.00 0.00 0.00 84 1027.2
20200407015007 40 177 2.0 3.0 0.00 0.00 0.00 84 1027.2
20200407014507 40 177 2.0 3.0 0.00 0.00 0.00 84 1027.2
20200407014007 40 177 2.0 3.0 0.00 0.00 0.00 84 1027.2
20200407013508 40 177 2.0 3.0 0.00 0.00 0.00 83 1027.1
20200407013006 40 177 2.0 3.0 0.00 0.00 0.00 83 1027.1
20200407012507 41 177 1.0 2.0 0.00 0.00 0.00 83 1027.0
20200407012007 41 177 0.0 3.0 0.00 0.00 0.00 83 1027.0
20200407011507 41 177 2.0 2.0 0.00 0.00 0.00 82 1027.0
20200407011007 41 177 2.0 3.0 0.00 0.00 0.00 83 1027.0
20200407010507 41 177 2.0 3.0 0.00 0.00 0.00 82 1026.9
20200407010007 41 177 2.0 3.0 0.00 0.00 0.00 82 1026.9
20200407005507 41 177 2.0 3.0 0.00 0.00 0.00 82 1026.9
20200407005007 41 177 2.0 3.0 0.00 0.00 0.00 81 1026.7
20200407004507 41 177 3.0 3.0 0.00 0.00 0.00 81 1026.7
20200407004007 42 177 2.0 3.0 0.00 0.00 0.00 81 1026.7
20200407003509 42 177 2.0 3.0 0.00 0.00 0.00 81 1026.7
20200407003006 42 178 2.0 3.0 0.00 0.00 0.00 81 1026.7
20200407002507 42 238 1.0 2.0 0.00 0.00 0.00 80 1026.6
20200407002007 42 238 1.0 2.0 0.00 0.00 0.00 80 1026.4
20200407001507 42 238 2.0 3.0 0.00 0.00 0.00 80 1026.4
20200407001007 43 238 1.0 2.0 0.00 0.00 0.00 80 1026.3
20200407000507 43 238 0.0 2.0 0.00 0.00 0.00 80 1026.2
20200407000007 43 238 0.0 1.0 0.00 0.00 0.00 80 1026.2
20200406235507 43 238 1.0 3.0 0.00 0.00 0.00 80 1026.1
20200406235007 43 238 2.0 3.0 0.00 0.00 0.00 80 1026.0
20200406234507 43 238 3.0 3.0 0.00 0.00 0.00 80 1025.9
20200406234006 43 238 1.0 2.0 0.00 0.00 0.00 80 1025.9
20200406233507 43 238 3.0 3.0 0.00 0.00 0.00 80 1025.9
20200406233006 43 238 3.0 5.0 0.00 0.00 0.00 79 1025.7
20200406232507 43 237 3.0 3.0 0.00 0.00 0.00 80 1025.7
20200406232007 43 237 2.0 3.0 0.00 0.00 0.00 80 1025.6
20200406231507 43 237 3.0 3.0 0.00 0.00 0.00 80 1025.6
20200406231007 43 237 3.0 3.0 0.00 0.00 0.00 80 1025.4
20200406230540 43 237 3.0 3.0 0.00 0.00 0.00 79 1025.3
20200406230006 43 237 2.0 3.0 0.00 0.00 0.00 80 1025.3
20200406225507 43 237 3.0 5.0 0.00 0.00 0.00 80 1025.2
20200406225006 43 237 4.0 5.0 0.00 0.00 0.00 80 1025.1
20200406224507 43 236 2.0 3.0 0.00 0.00 0.00 79 1025.1
20200406224007 43 236 1.0 2.0 0.00 0.00 0.00 79 1025.0
20200406223507 43 236 1.0 2.0 0.00 0.00 0.00 78 1024.9
20200406223007 43 236 0.0 1.0 0.00 0.00 0.00 78 1024.9
20200406222507 43 236 1.0 2.0 0.00 0.00 0.00 78 1024.7
20200406222006 43 236 1.0 2.0 0.00 0.00 0.00 78 1024.6
20200406221508 43 236 1.0 2.0 0.00 0.00 0.00 77 1024.5
20200406221006 44 236 0.0 1.0 0.00 0.00 0.00 77 1024.4
20200406220507 44 236 1.0 2.0 0.00 0.00 0.00 77 1024.3
20200406220007 44 236 2.0 3.0 0.00 0.00 0.00 77 1024.2
20200406215507 44 236 2.0 3.0 0.00 0.00 0.00 77 1024.2
20200406215007 44 236 1.0 3.0 0.00 0.00 0.00 76 1024.2
20200406214507 44 236 0.0 1.0 0.00 0.00 0.00 76 1024.2
20200406214007 44 236 0.0 0.0 0.00 0.00 0.00 76 1024.1
20200406213507 44 236 0.0 2.0 0.00 0.00 0.00 76 1024.0
20200406213007 45 236 1.0 2.0 0.00 0.00 0.00 76 1024.0
20200406212507 45 236 1.0 2.0 0.00 0.00 0.00 76 1024.0
20200406212006 45 236 1.0 2.0 0.00 0.00 0.00 75 1024.0
20200406211507 45 236 0.0 2.0 0.00 0.00 0.00 75 1024.0
20200406211007 45 236 0.0 1.0 0.00 0.00 0.00 75 1023.9
20200406210507 45 236 2.0 3.0 0.00 0.00 0.00 75 1023.8
20200406210006 45 236 2.0 3.0 0.00 0.00 0.00 75 1023.8
20200406205507 46 236 0.0 3.0 0.00 0.00 0.00 74 1023.9
20200406205007 46 236 1.0 3.0 0.00 0.00 0.00 74 1023.9
20200406204507 46 236 0.0 2.0 0.00 0.00 0.00 74 1023.7
20200406204007 46 236 1.0 3.0 0.00 0.00 0.00 73 1023.5
20200406203507 46 236 1.0 3.0 0.00 0.00 0.00 73 1023.5
20200406203007 46 236 0.0 2.0 0.00 0.00 0.00 73 1023.5
20200406202507 47 236 1.0 2.0 0.00 0.00 0.00 73 1023.3
20200406202007 47 236 1.0 3.0 0.00 0.00 0.00 72 1023.2
20200406201507 47 236 1.0 5.0 0.00 0.00 0.00 72 1023.2
20200406201006 47 236 2.0 3.0 0.00 0.00 0.00 71 1023.1
20200406200507 47 236 1.0 3.0 0.00 0.00 0.00 71 1023.0
20200406200007 48 236 1.0 3.0 0.00 0.00 0.00 71 1022.9
20200406195507 48 236 1.0 2.0 0.00 0.00 0.00 70 1022.9
20200406195010 48 236 1.0 3.0 0.00 0.00 0.00 70 1022.8
20200406194506 48 236 0.0 1.0 0.00 0.00 0.00 69 1022.6
20200406194007 48 236 1.0 3.0 0.00 0.00 0.00 69 1022.5
20200406193506 49 236 2.0 3.0 0.00 0.00 0.00 69 1022.3
20200406193006 49 236 1.0 2.0 0.00 0.00 0.00 68 1022.2
20200406192506 49 236 2.0 3.0 0.00 0.00 0.00 68 1022.1
20200406192007 49 236 2.0 3.0 0.00 0.00 0.00 67 1022.0
20200406191507 50 236 1.0 2.0 0.00 0.00 0.00 67 1021.8
20200406191006 50 236 1.0 2.0 0.00 0.00 0.00 67 1021.7
20200406190507 50 236 0.0 3.0 0.00 0.00 0.00 66 1021.6
20200406190007 50 237 2.0 6.0 0.00 0.00 0.00 65 1021.4
20200406185506 50 233 1.0 3.0 0.00 0.00 0.00 65 1021.3
20200406185006 50 233 3.0 7.0 0.00 0.00 0.00 65 1021.3
20200406184507 51 237 3.0 5.0 0.00 0.00 0.00 65 1021.2
20200406184006 51 219 3.0 7.0 0.00 0.00 0.00 64 1021.2
20200406183507 51 253 3.0 10.0 0.00 0.00 0.00 64 1021.0
20200406183006 51 255 4.0 8.0 0.00 0.00 0.00 64 1020.9
20200406182507 51 249 7.0 13.0 0.00 0.00 0.00 63 1020.8
20200406182006 52 260 4.0 12.0 0.00 0.00 0.00 63 1020.8
20200406181506 52 263 7.0 12.0 0.00 0.00 0.00 62 1020.6
20200406181006 52 249 6.0 10.0 0.00 0.00 0.00 62 1020.6
20200406180507 52 273 6.0 12.0 0.00 0.00 0.00 62 1020.5
20200406180006 52 279 7.0 17.0 0.00 0.00 0.00 61 1020.4
20200406175507 52 270 8.0 12.0 0.00 0.00 0.00 60 1020.3
20200406175007 53 257 7.0 13.0 0.00 0.00 0.00 59 1020.2